CZ-6A DEB

Satellite information

Favourite Embed

Satellite Type and Status

DEBRISIN ORBIT

Key statistics

Satellite CZ-6A DEB at a glance.

Uptime

914

Days in orbit

Revolutions

≈ 14.8

Per day

Orbit

SSO

Sun Synchronous Orbit

Inclination

98.7

Latest

Satellite identification and parameters

Extended collection of information and parameters for CZ-6A DEB.

Object identification

Identified? True

Debris? True

Object name: CZ-6A DEB

International designator: 2022-151SD

Object number (NORAD): 54940

Object ID (CCSDS): 54940

Country: PEOPLES REPUBLIC OF CHINA (PRC)

Current information (Y/N): Y

RCS size: SMALL

Orbital parameters

Period: 97.318 minutes

Inclination: 98.6754 deg

SMA: 7008.437 km

Apoapsis: 673.518 km

Periapsis: 587.087 km

RAAN: 184.0827 deg

Eccentricy: 0.0061662

Argument of periapsis: 64.1756 deg

Mean anomaly: 296.5796 deg

Mean motion: 14.79690861 rev/day

Mean motion (dot): 0.00031297 rev/day2

B* drag term: 0.0040268 1/REarth

Two-line elements (TLE)

Creation date: May 11, 2025, 10:21 p.m.

Reference frame: TEME

Reference center: EARTH

Epoch: May 11, 2025, 2:02 p.m. UTC

TLE line 0: 0 CZ-6A DEB

TLE line 1: 1 54940U 22151SD 25131.58487014 .00031297 00000-0 40268-2 0 9996

TLE line 2: 2 54940 98.6754 184.0827 0061662 64.1756 296.5796 14.79690861131676

Live tracking on map

Real-time ground track for satellite CZ-6A DEB.

In-orbit conjunctions

A list of the most updated potential collisions computed for object CZ-6A DEB.

Target Orbit TCA Probability of collision Miss distance Type
SL-14 R/B LEO 2025-01-01 23:34:46 0.0001388743 498.0 (m) ROCKET BODY
COSMOS 192 LEO 2024-10-07 15:50:01 0.0002069701 988.0 (m) PAYLOAD

Associated space launch

Chinese satellite reported for atmospheric/ocean/environmental/spatial parameter research purposes, details TBD.

CZ-6A DEB was lifted into orbit during the mission ‘Long March 6A | Yunhai 3’, on board a Long March 6A space rocket.

The launch took place on Nov. 11, 2022, 10:52 p.m. from Launch Complex 9A.

For more information about the launch, click the button.

Launch to space Long March 6A | Yunhai 3
Long March 6A | Yunhai 3

Agency: N/A

Status: Launch Successful

Launch date: Nov. 11, 2022, 10:52 p.m. UTC

Rocket: Long March 6A

Launch pad: Launch Complex 9A

Location: Taiyuan Satellite Launch Center, People's Republic of China

...

Latest news about this satellite

There are no fresh news available about this satellite. Check back as we update our databases every day.


Newsletter sign-up

Weekly statistics, charts and insights to help you stay on top of the space industry.